User: anonymous   Login
Location: Unspecified
(0.0000°N, 0.0000°E)
Time: 16:48:33
(UTC+00:00)
Language:

Transit 2A Rocket - Orbit

View from above orbital plane
View from above orbital plane
View from above satellite
View from above satellite

Ground track
Ground track

The orbit data is extracted from the following two-line orbital elements,

1    47U 60007C   16211.89708190 -.00000012 +00000-0 +22484-4 0  9995
2    47 066.6669 347.3872 0235959 261.1996 096.2324 14.41842545930177
Epoch (UTC): 29 July 2016 21:31:47
Eccentricity: 0.0235959
inclination: 66.6669°
perigee height: 584 km
apogee height: 920 km
right ascension of ascending node: 347.3872°
argument of perigee: 261.1996°
revolutions per day: 14.41842545
mean anomaly at epoch: 96.2324°
orbit number at epoch: 93017

The dashed part of the orbit path shows where the satellite is in the earth's shadow,  

DLR